Mekkah, Arab Saudi

01:51 PM AST on Januari 30, 2015 (GMT +0300)
Makkah | Change Station
CLOSE
Current Station
Airport
Location: Makkah,
Elevation: 1211 ft
Nearby Weather Stations

Elev 1211 ft 21.44 °N, 40.00 °E | Updated 51 minutes ago

Clear
Cerah
90 °F
Feels Like 90 °F
N
0
Angin Variable Angin from Arah Utara

Siang Ini
High -- | Low -- °F
--% Chance of Precip.
Yesterday
High -- | Low -- °F
Precip. -- Inch
6:59 AM 6:09 PM
Waxing Gibbous, 82% visible
Tekanan 29.95 Inch
Jarak Pandang -9999.0 Mil
Awan
Ideks Panas 90 °F
Titik Embun 63 °F
Kelembaban 40%
Rainfall 0.00 Inch
Snow Depth Not available.
UV Not available.
Pollen Not available.
Air Quality Not available.
Flu Activity Not available.
METAR OEMK 301000Z 00000KT CAVOK 32/17 Q1014

More Conditions Fewer Conditions

Tekanan 29.95 Inch
Jarak Pandang -9999.0 Mil
Awan
Ideks Panas 90 °F
Titik Embun 63 °F
Kelembaban 40%
Rainfall 0.00 Inch
Snow Depth Not available.
UV Not available.
Pollen Not available.
Air Quality Not available.
Flu Activity Not available.
METAR OEMK 301000Z 00000KT CAVOK 32/17 Q1014

More Conditions Fewer Conditions

10-Day Weather Forecast

Almanac

Astronomi

Jan. 30, 2015 Rise Set
Actual Time
Civil Twilight
Nautical Twilight
Astronomical Twilight
Moon
Length Of Visible Light
Lama Satu Hari
Tomorrow will be .
, % of the Moon is Illuminated

Today's Extremes

Country Highs Country Lows

Community

WunderPhotos

Upload Photos

1,791,736 photos uploaded!

WunderBlogs® & News

Nearby

Air Quality

  Air Quality AQ Index Pollutant
Not available.

Snow Depth

Station Depth Elevation

Earthquake Activity

City Distance Mag. Time & Date
Minimum magnitude displayed is 2.5.

Coastal Water Temperatures

Lokasi Temperatur

Nearby Weather Stations